TimeIST,TemperatureF,Dew PointF,Humidity,Sea Level PressureIn,VisibilityMPH,Wind Direction,Wind SpeedMPH,Gust SpeedMPH,PrecipitationIn,Events,Conditions,WindDirDegrees,DateUTC
12:00 AM,46.4,42.8,87,29.92,6.2,West,16.1,-,N/A,,Partly Cloudy,260,2012-09-28 23:00:00
12:30 AM,46.4,42.8,87,29.92,6.2,West,17.3,-,N/A,,Partly Cloudy,260,2012-09-28 23:30:00
1:00 AM,45,42,87,29.94,22,WSW,15.7,,,,Scattered Clouds,250,2012-09-29 00:00:00
1:00 AM,44.6,42.8,93,29.92,6.2,WSW,16.1,-,N/A,,Partly Cloudy,250,2012-09-29 00:00:00
1:30 AM,44.6,42.8,93,29.95,6.2,West,17.3,-,N/A,,Partly Cloudy,260,2012-09-29 00:30:00
2:00 AM,44.6,42.8,93,29.95,6.2,West,17.3,-,N/A,,Partly Cloudy,260,2012-09-29 01:00:00
2:30 AM,44.6,42.8,93,29.95,6.2,West,17.3,-,N/A,,Partly Cloudy,260,2012-09-29 01:30:00
3:00 AM,44.6,41.0,87,29.95,6.2,West,18.4,-,N/A,,Partly Cloudy,260,2012-09-29 02:00:00
3:30 AM,44.6,41.0,87,29.95,6.2,West,18.4,-,N/A,,Partly Cloudy,260,2012-09-29 02:30:00
4:00 AM,44.6,41.0,87,29.98,6.2,West,17.3,-,N/A,,Partly Cloudy,270,2012-09-29 03:00:00
4:30 AM,44.6,41.0,87,29.98,6.2,West,18.4,-,N/A,,Partly Cloudy,260,2012-09-29 03:30:00
5:00 AM,42.8,41.0,93,29.98,6.2,West,18.4,-,N/A,,Partly Cloudy,260,2012-09-29 04:00:00
5:30 AM,42.8,41.0,93,29.98,6.2,West,16.1,-,N/A,,Partly Cloudy,260,2012-09-29 04:30:00
6:00 AM,42.8,41.0,93,29.98,6.2,West,17.3,-,N/A,,Partly Cloudy,260,2012-09-29 05:00:00
6:30 AM,44.6,41.0,87,30.01,6.2,West,16.1,-,N/A,,Partly Cloudy,260,2012-09-29 05:30:00
7:00 AM,45,40,75,30.03,22,West,17.9,,,,Scattered Clouds,270,2012-09-29 06:00:00
7:00 AM,44.6,41.0,87,30.01,6.2,West,16.1,-,N/A,,Partly Cloudy,260,2012-09-29 06:00:00
7:30 AM,44.6,39.2,81,30.01,6.2,West,17.3,-,N/A,,Partly Cloudy,270,2012-09-29 06:30:00
8:00 AM,44.6,39.2,81,30.04,6.2,West,20.7,-,N/A,,Partly Cloudy,270,2012-09-29 07:00:00
8:30 AM,44.6,41.0,87,30.04,6.2,West,18.4,-,N/A,,Partly Cloudy,270,2012-09-29 07:30:00
9:00 AM,46.4,41.0,81,30.04,6.2,West,18.4,-,N/A,,Scattered Clouds,270,2012-09-29 08:00:00
9:30 AM,46.4,42.8,87,30.06,6.2,West,17.3,-,N/A,,Scattered Clouds,270,2012-09-29 08:30:00
10:00 AM,50.0,42.8,76,30.06,6.2,West,17.3,-,N/A,,Partly Cloudy,260,2012-09-29 09:00:00
10:30 AM,51.8,42.8,71,30.06,6.2,West,15.0,-,N/A,,Scattered Clouds,260,2012-09-29 09:30:00
11:00 AM,51.8,44.6,76,30.06,6.2,West,17.3,-,N/A,,Scattered Clouds,270,2012-09-29 10:00:00
11:30 AM,53.6,42.8,67,30.09,6.2,West,18.4,-,N/A,,Scattered Clouds,270,2012-09-29 10:30:00
12:00 PM,53.6,44.6,72,30.09,6.2,West,17.3,-,N/A,,Mostly Cloudy,270,2012-09-29 11:00:00
12:30 PM,55.4,44.6,67,30.09,6.2,West,17.3,-,N/A,,Scattered Clouds,270,2012-09-29 11:30:00
1:00 PM,54,44,59,30.10,25,West,17.9,,,,Mostly Cloudy,270,2012-09-29 12:00:00
1:00 PM,55.4,44.6,67,30.09,6.2,West,17.3,-,N/A,,Scattered Clouds,270,2012-09-29 12:00:00
1:30 PM,57.2,44.6,63,30.06,6.2,West,18.4,-,N/A,,Mostly Cloudy,280,2012-09-29 12:30:00
2:00 PM,55.4,44.6,67,30.06,6.2,West,17.3,-,N/A,,Mostly Cloudy,280,2012-09-29 13:00:00
2:30 PM,55.4,44.6,67,30.09,6.2,West,17.3,-,N/A,,Mostly Cloudy,270,2012-09-29 13:30:00
3:00 PM,55.4,44.6,67,30.09,6.2,West,16.1,-,N/A,,Mostly Cloudy,280,2012-09-29 14:00:00
3:30 PM,55.4,46.4,72,30.09,6.2,West,17.3,-,N/A,,Mostly Cloudy,270,2012-09-29 14:30:00
4:00 PM,57.2,46.4,67,30.06,6.2,West,13.8,-,N/A,,Mostly Cloudy,270,2012-09-29 15:00:00
4:30 PM,57.2,46.4,67,30.06,6.2,West,15.0,-,N/A,,Mostly Cloudy,260,2012-09-29 15:30:00
5:00 PM,55.4,46.4,72,30.06,6.2,WSW,9.2,-,N/A,,Mostly Cloudy,240,2012-09-29 16:00:00
5:30 PM,55.4,46.4,72,30.06,6.2,WSW,12.7,-,N/A,,Mostly Cloudy,250,2012-09-29 16:30:00
6:00 PM,55.4,48.2,77,30.06,6.2,WSW,13.8,-,N/A,,Mostly Cloudy,240,2012-09-29 17:00:00
6:30 PM,55.4,48.2,77,30.04,6.2,WSW,12.7,-,N/A,,Mostly Cloudy,240,2012-09-29 17:30:00
7:00 PM,55.4,48.2,77,30.04,6.2,SW,9.2,-,N/A,,Mostly Cloudy,230,2012-09-29 18:00:00
7:30 PM,55.4,48.2,77,30.04,6.2,SW,9.2,-,N/A,,Mostly Cloudy,220,2012-09-29 18:30:00
8:00 PM,55.4,48.2,77,30.04,6.2,SSW,10.4,-,N/A,,Mostly Cloudy,210,2012-09-29 19:00:00
8:30 PM,55.4,48.2,77,30.04,6.2,SSW,9.2,-,N/A,,Mostly Cloudy,210,2012-09-29 19:30:00
9:00 PM,55.4,48.2,77,30.04,6.2,SSW,10.4,-,N/A,,Mostly Cloudy,210,2012-09-29 20:00:00
9:30 PM,55.4,48.2,77,30.01,6.2,SSW,9.2,-,N/A,,Mostly Cloudy,200,2012-09-29 20:30:00
10:00 PM,55.4,48.2,77,30.01,6.2,SSW,16.1,-,N/A,,Mostly Cloudy,210,2012-09-29 21:00:00
10:30 PM,53.6,48.2,82,30.01,6.2,SW,16.1,-,N/A,,Mostly Cloudy,220,2012-09-29 21:30:00
11:00 PM,53.6,46.4,77,29.98,6.2,SW,15.0,-,N/A,,Mostly Cloudy,220,2012-09-29 22:00:00
11:30 PM,53.6,46.4,77,29.98,6.2,SW,18.4,-,N/A,,Mostly Cloudy,220,2012-09-29 22:30:00